CW2550 Weather Reports


Display with metric or nautical units.
time (UTC)temp
F
wind
direction
speed
MPH
gust
MPH
rain 1hr
in
rain 24hr
in
rain mn
in
humidity
%
barometer
mb
20260904050056 75 0 0.0 1.0 0.00 0.22 0.00 88 1008.8
20260904044547 75 0 0.0 3.0 0.00 0.22 0.22 88 1008.8
20260904043059 75 185 1.0 4.0 0.00 0.22 0.22 87 1008.5
20260904041549 76 182 1.0 3.0 0.00 0.22 0.22 86 1008.6
20260904040057 76 177 1.0 4.0 0.00 0.22 0.22 86 1008.6
20260904034550 76 158 2.0 5.0 0.00 0.22 0.22 85 1008.7
20260904033045 77 183 1.0 3.0 0.00 0.22 0.22 85 1008.9
20260904031555 77 181 2.0 6.0 0.00 0.22 0.22 84 1008.8
20260904030058 77 213 2.0 7.0 0.00 0.22 0.22 84 1008.7
20260904024552 77 188 2.0 7.0 0.00 0.22 0.22 83 1008.6
20260904023044 78 173 3.0 6.0 0.00 0.22 0.22 83 1008.5
20260904021608 78 184 1.0 5.0 0.00 0.22 0.22 83 1008.6
20260904020056 78 146 1.0 4.0 0.00 0.22 0.22 82 1008.6
20260904014605 79 179 2.0 6.0 0.00 0.22 0.22 81 1008.6
20260904013103 79 158 1.0 5.0 0.00 0.22 0.22 80 1008.3
20260904011601 80 162 0.0 4.0 0.00 0.22 0.22 79 1008.2
20260904010052 80 152 3.0 7.0 0.00 0.22 0.22 78 1008.0
20260904004546 81 145 3.0 10.0 0.00 0.22 0.22 77 1008.0
20260904003050 81 171 4.0 10.0 0.00 0.22 0.22 76 1008.0
20260904001622 81 146 3.0 8.0 0.00 0.22 0.22 75 1008.0
20260903234557 82 170 4.0 10.0 0.00 0.22 0.22 72 1008.2
20260903233051 83 172 7.0 16.0 0.00 0.22 0.22 71 1008.0
20260903231550 83 146 7.0 17.0 0.00 0.22 0.22 70 1007.7
20260903230052 84 155 5.0 11.0 0.00 0.22 0.22 70 1007.2
20260903224544 84 183 5.0 11.0 0.00 0.22 0.22 69 1007.5
20260903223048 84 176 6.0 12.0 0.00 0.22 0.22 69 1007.5
20260903221551 84 158 4.0 17.0 0.00 0.22 0.22 69 1007.6
20260903220048 84 179 8.0 16.0 0.00 0.22 0.22 66 1007.9
20260903214541 84 165 5.0 11.0 0.00 0.22 0.22 67 1008.1
20260903213052 85 126 4.0 11.0 0.00 0.22 0.22 67 1007.9
20260903211553 84 166 7.0 19.0 0.00 0.22 0.22 65 1008.1
20260903210123 84 177 6.0 12.0 0.00 0.22 0.22 65 1008.2
20260903204603 84 191 6.0 15.0 0.00 0.22 0.22 66 1008.2
20260903203053 84 192 8.0 16.0 0.00 0.22 0.22 66 1008.2
20260903201550 84 187 8.0 17.0 0.00 0.22 0.22 65 1008.6
20260903200056 84 148 7.0 17.0 0.00 0.22 0.22 65 1008.9
20260903194545 84 192 8.0 15.0 0.00 0.22 0.22 64 1008.9
20260903193056 83 163 7.0 17.0 0.00 0.22 0.22 65 1009.1
20260903191600 83 132 6.0 13.0 0.00 0.22 0.22 64 1009.1
20260903190054 83 132 3.0 10.0 0.00 0.22 0.22 68 1009.1
20260903184551 81 117 4.0 12.0 0.00 0.22 0.22 68 1009.2
20260903183051 82 172 4.0 16.0 0.00 0.22 0.22 66 1009.2
20260903181542 83 126 6.0 20.0 0.00 0.22 0.22 64 1009.6
20260903180053 83 167 6.0 15.0 0.00 0.22 0.22 64 1009.7
20260903174550 83 221 7.0 16.0 0.00 0.22 0.22 64 1009.4
20260903173049 82 223 3.0 12.0 0.00 0.22 0.22 68 1009.4
20260903171609 83 206 5.0 12.0 0.00 0.22 0.22 66 1009.7
20260903170055 82 188 6.0 17.0 0.00 0.22 0.22 66 1010.0
20260903164548 82 205 6.0 10.0 0.00 0.22 0.22 67 1010.0
20260903163053 80 156 1.0 6.0 0.00 0.22 0.22 74 1009.9
20260903161555 79 161 2.0 8.0 0.00 0.22 0.22 73 1010.0
20260903160051 79 165 6.0 12.0 0.00 0.22 0.22 75 1010.0
20260903154550 78 171 4.0 8.0 0.00 0.22 0.22 78 1010.1
20260903153044 76 148 2.0 6.0 0.00 0.22 0.22 80 1009.8
20260903151558 75 0 0.0 3.0 0.00 0.22 0.22 83 1010.0
20260903150054 74 0 1.0 7.0 0.00 0.22 0.22 84 1010.0
20260903144551 73 110 2.0 6.0 0.00 0.22 0.22 84 1009.9
20260903143046 73 181 2.0 7.0 0.00 0.22 0.22 85 1010.0
20260903141544 72 177 2.0 6.0 0.00 0.22 0.22 85 1009.9
20260903140105 71 184 3.0 6.0 0.00 0.22 0.22 86 1009.4
20260903134550 70 180 2.0 7.0 0.00 0.22 0.22 88 1009.4
20260903133104 69 170 4.0 9.0 0.00 0.22 0.22 90 1009.5
20260903131605 69 198 3.0 11.0 0.03 0.22 0.22 90 1009.8
20260903130052 69 198 6.0 13.0 0.04 0.22 0.22 91 1009.6
20260903124543 68 149 6.0 14.0 0.08 0.22 0.22 91 1009.7
20260903123054 69 197 5.0 13.0 0.08 0.22 0.22 91 1010.1
20260903121550 69 166 7.0 13.0 0.15 0.19 0.19 92 1010.2
20260903120055 69 146 3.0 7.0 0.18 0.18 0.18 91 1010.1
20260903114552 70 221 0.0 8.0 0.14 0.14 0.14 90 1010.9
20260903113057 70 197 6.0 23.0 0.14 0.14 0.14 89 1010.4
20260903111550 72 205 11.0 19.0 0.03 0.03 0.03 87 1010.5
20260903110049 72 150 4.0 11.0 0.00 0.00 0.00 87 1009.9
20260903104548 72 190 5.0 10.0 0.00 0.00 0.00 88 1010.0
20260903103052 72 184 6.0 16.0 0.00 0.00 0.00 89 1010.4
20260903101557 72 211 5.0 11.0 0.00 0.00 0.00 90 1010.4
20260903100055 72 219 8.0 18.0 0.00 0.00 0.00 91 1010.2
20260903094637 71 201 3.0 6.0 0.00 0.00 0.00 90 1010.3
20260903093054 71 175 3.0 6.0 0.00 0.00 0.00 89 1010.1
20260903091606 71 151 1.0 4.0 0.00 0.00 0.00 89 1009.9
20260903090057 72 120 1.0 5.0 0.00 0.00 0.00 88 1009.5
20260903084551 72 173 1.0 7.0 0.00 0.01 0.00 88 1009.9
20260903083048 72 0 0.0 4.0 0.00 0.01 0.00 88 1009.5
20260903081548 72 0 0.0 2.0 0.00 0.01 0.00 88 1009.6
20260903080056 72 0 0.0 3.0 0.00 0.01 0.00 89 1009.8
20260903074547 71 0 0.0 4.0 0.00 0.10 0.00 90 1009.8
20260903073058 71 0 0.0 2.0 0.00 0.10 0.00 89 1009.9
20260903071554 71 0 0.0 1.0 0.00 0.10 0.00 88 1009.9
20260903070053 71 0 0.0 0.0 0.00 0.10 0.00 87 1010.1
20260903064554 72 0 0.0 6.0 0.00 0.22 0.00 86 1010.0
20260903063058 73 0 0.0 1.0 0.00 0.22 0.00 87 1010.0
20260903061554 73 0 0.0 2.0 0.00 0.22 0.00 87 1010.1
20260903060056 73 0 0.0 2.0 0.00 0.22 0.00 88 1010.1
20260903054549 72 0 0.0 0.0 0.00 0.26 0.00 88 1010.2
20260903053102 72 0 0.0 0.0 0.00 0.26 0.00 87 1010.1
20260903051554 72 0 0.0 0.0 0.00 0.26 0.00 87 1010.1